MDT,Max TemperatureF,Mean TemperatureF,Min TemperatureF,Max Dew PointF,MeanDew PointF,Min DewpointF,Max Humidity, Mean Humidity, Min Humidity, Max Sea Level PressureIn, Mean Sea Level PressureIn, Min Sea Level PressureIn, Max VisibilityMiles, Mean VisibilityMiles, Min VisibilityMiles, Max Wind SpeedMPH, Mean Wind SpeedMPH, Max Gust SpeedMPH,PrecipitationIn, CloudCover, Events, WindDirDegrees
2013-8-1,94,76,58,52,46,32,56,34,12,29.92,29.82,29.70,10,9,3,43,11,55,T,2,Rain-Thunderstorm,310
2013-8-2,85,69,53,49,46,34,83,50,17,30.05,29.98,29.92,10,10,10,16,5,21,0.00,0,,261
2013-8-3,89,73,57,48,42,35,64,40,16,30.06,29.99,29.90,10,10,10,15,4,21,0.00,0,,302
2013-8-4,95,77,58,51,42,27,56,33,9,30.01,29.93,29.81,10,10,10,8,2,12,0.00,0,,334
2013-8-5,98,79,60,48,43,37,64,39,13,29.91,29.84,29.75,10,10,10,20,6,25,0.00,0,,278
2013-8-6,97,81,65,55,43,34,53,32,11,29.95,29.88,29.80,10,10,10,15,3,18,0.00,0,,326
2013-8-7,100,79,57,55,42,25,67,39,10,29.90,29.82,29.74,10,10,10,23,6,29,0.00,0,,335
2013-8-8,100,87,73,45,38,25,30,20,10,29.84,29.77,29.68,10,10,9,24,8,30,0.00,0,,314
2013-8-9,95,82,69,53,48,38,51,32,13,29.85,29.79,29.69,10,10,2,24,10,31,0.00,0,,219
2013-8-10,92,78,64,56,49,44,56,39,21,29.93,29.84,29.78,10,9,2,21,6,25,0.00,0,,244
2013-8-11,95,80,65,54,46,34,63,38,12,29.95,29.87,29.79,10,10,6,25,9,37,0.00,0,,239
2013-8-12,95,80,64,53,47,36,60,38,16,29.93,29.87,29.82,10,10,5,18,6,25,0.00,0,,267
2013-8-13,96,80,63,53,47,39,60,38,15,29.99,29.93,29.86,10,10,10,22,6,28,0.00,0,Thunderstorm,223
2013-8-14,99,78,56,55,48,39,77,46,14,29.96,29.87,29.77,10,10,10,23,2,31,0.00,0,,95
2013-8-15,101,81,60,54,45,31,67,38,9,29.93,29.84,29.75,10,10,10,12,3,18,0.00,0,,225
2013-8-16,98,82,65,55,48,41,52,34,15,29.96,29.87,29.79,10,10,10,18,6,24,0.00,0,,289
2013-8-17,96,83,69,57,51,48,53,37,20,29.98,29.89,29.80,10,10,10,24,7,33,0.00,0,,296
2013-8-18,98,84,70,52,47,41,44,31,17,30.01,29.93,29.84,10,10,10,20,9,25,0.00,0,,313
2013-8-19,96,80,63,55,47,41,56,37,17,30.00,29.92,29.82,10,10,10,18,5,24,0.00,0,,245
2013-8-20,98,84,70,46,41,32,38,26,13,29.96,29.87,29.80,10,10,10,22,10,28,0.00,0,,322
2013-8-21,89,76,63,59,47,35,66,44,21,29.97,29.92,29.88,10,10,10,22,4,28,0.00,0,,250
2013-8-22,94,79,64,58,54,48,78,51,23,29.96,29.89,29.75,10,9,1,6,2,53,T,0,Thunderstorm,221
2013-8-23,90,74,58,59,50,40,84,51,17,29.91,29.82,29.73,10,10,10,14,4,38,0.00,0,,230
2013-8-24,91,73,54,54,51,39,86,52,17,29.83,29.76,29.67,10,10,6,8,1,10,0.00,0,,213
2013-8-25,91,74,56,53,47,39,72,46,19,29.90,29.82,29.75,10,10,10,18,4,23,T,0,Rain,287
2013-8-26,89,75,60,53,46,42,64,43,21,29.98,29.90,29.82,10,10,10,15,3,20,0.00,0,,157
2013-8-27,93,75,56,52,47,37,67,41,14,29.95,29.84,29.71,10,10,10,10,3,12,0.00,0,,250
2013-8-28,94,79,63,54,46,28,60,36,11,29.90,29.82,29.72,10,10,10,9,3,14,0.00,0,,79
2013-8-29,96,78,60,58,51,40,72,43,14,29.95,29.89,29.83,10,10,10,9,2,16,0.00,0,,177
2013-8-30,92,79,65,53,49,43,60,39,18,30.10,30.00,29.92,10,10,10,15,4,22,0.00,0,,274
2013-8-31,95,76,57,53,49,42,72,45,17,30.03,29.93,29.82,10,10,10,7,2,9,0.00,0,,216